Weather History for Houston / Southwest Airport, TX

Change the Weather History Date:

Saturday, October 13, 2012

  Actual Average (KHOU) Record (KHOU)
Temperature  
Mean Temperature 78 °F 72 °F  
Max Temperature 90 °F 83 °F 94 °F (1991)
Min Temperature 66 °F 62 °F 36 °F (1977)
Degree Days  
Heating Degree Days 0 1  
Month to date heating degree days 2  
Since 1 July heating degree days 3  
Cooling Degree Days 13 8  
Month to date cooling degree days 119  
Year to date cooling degree days 2944  
Growing Degree Days 28 (Base 50)    
Moisture  
Dew Point 68 °F    
Average Humidity 74    
Maximum Humidity 96    
Minimum Humidity 48    
Precipitation  
Precipitation 0.00 in 0.18 in 2.55 in (1959)
Month to date precipitation 2.21  
Year to date precipitation 38.20  
Sea Level Pressure  
Sea Level Pressure 30.05 in    
Wind  
Wind Speed 5 mph (SSE)    
Max Wind Speed 18 mph    
Max Gust Speed 25 mph    
Visibility 8 miles    
Events Fog    
T = Trace of Precipitation, MM = Missing Value Source: NWS Daily Summary

Daily Weather History Graph

Daily Weather History Graph

Search for Another Location

Airport:

Trip Planner

Search our weather history database for the weather conditions in past years. The results will help you decide how hot, cold, wet, or windy it might be!

Date:

Astronomy

Oct. 13, 2012 Rise Set
Actual Time 7:22 AM CDT 6:53 PM CDT
Civil Twilight 6:58 AM CDT 7:16 PM CDT
Nautical Twilight 6:30 AM CDT 7:44 PM CDT
Astronomical Twilight 6:03 AM CDT 8:12 PM CDT
Moon 5:20 AM CDT (10/13) 5:33 PM CDT (10/13)
Length of Visible Light 12h 18m
Length of Day
11h 30m
Waning Crescent, 5% of the Moon is Illuminated
Oct 13
Waning Crescent
Oct 15
New
Oct 21
First Quarter
Oct 29
Full
Nov 6
Last Quarter

Hourly Weather History & Observations

Time (CDT) Temp. Heat Index Dew Point Humidity Pressure Visibility Wind Dir Wind Speed Gust Speed Precip Events Conditions
1:35 AM 70.7 °F - 67.5 °F 89% 30.11 in 10.0 mi SE 3.5 mph - N/A   Clear
1:55 AM 70.7 °F - 68.0 °F 91% 30.11 in 10.0 mi SE 4.6 mph - N/A   Clear
2:15 AM 70.2 °F - 67.5 °F 91% 30.10 in 7.0 mi SE 3.5 mph - N/A   Clear
2:35 AM 69.8 °F - 67.3 °F 92% 30.09 in 7.0 mi SE 4.6 mph - N/A   Clear
2:55 AM 69.6 °F - 67.1 °F 92% 30.09 in 7.0 mi Calm Calm - N/A   Clear
3:15 AM 69.8 °F - 67.5 °F 92% 30.08 in 7.0 mi SSE 3.5 mph - N/A   Clear
3:35 AM 70.2 °F - 68.2 °F 93% 30.08 in 7.0 mi Calm Calm - N/A   Clear
3:55 AM 70.2 °F - 68.2 °F 93% 30.07 in 7.0 mi South 3.5 mph - N/A   Clear
4:15 AM 69.8 °F - 68.0 °F 94% 30.07 in 7.0 mi Calm Calm - N/A   Clear
4:35 AM 69.4 °F - 67.5 °F 93% 30.07 in 7.0 mi Calm Calm - N/A   Clear
5:35 AM 68.4 °F - 66.6 °F 94% 30.08 in 0.5 mi Calm Calm - N/A Fog Fog
5:55 AM 67.6 °F - 65.8 °F 94% 30.08 in 0.5 mi Calm Calm - N/A Fog Fog
6:15 AM 67.1 °F - 65.3 °F 94% 30.08 in 0.2 mi Calm Calm - N/A Fog Fog
6:35 AM 66.6 °F - 64.8 °F 94% 30.08 in 0.5 mi Calm Calm - N/A Fog Fog
6:55 AM 66.4 °F - 64.4 °F 93% 30.08 in 0.2 mi Calm Calm - N/A Fog Fog
7:15 AM 66.6 °F - 64.9 °F 95% 30.09 in 0.2 mi Calm Calm - N/A Fog Fog
7:35 AM 66.2 °F - 64.6 °F 94% 30.09 in 0.2 mi Calm Calm - N/A Fog Fog
7:55 AM 68.5 °F - 67.3 °F 96% 30.09 in 2.5 mi Calm Calm - N/A   Scattered Clouds
8:15 AM 70.7 °F - 69.6 °F 96% 30.09 in 4.0 mi Calm Calm - N/A   Clear
8:55 AM 75.6 °F - 73.6 °F 94% 30.10 in 7.0 mi SE 4.6 mph - N/A   Clear
9:55 AM 82.0 °F 87.7 °F 73.2 °F 75% 30.10 in 10.0 mi SSE 11.5 mph 17.3 mph N/A   Clear
10:15 AM 83.3 °F 88.4 °F 71.8 °F 68% 30.10 in 10.0 mi SSE 11.5 mph 17.3 mph N/A   Scattered Clouds
11:15 AM 87.6 °F 92.3 °F 69.4 °F 55% 30.10 in 10.0 mi SSE 15.0 mph 19.6 mph N/A   Mostly Cloudy
11:35 AM 87.1 °F 90.6 °F 67.8 °F 53% 30.10 in 10.0 mi South 9.2 mph 20.7 mph N/A   Mostly Cloudy
11:55 AM 87.3 °F 90.9 °F 68.0 °F 53% 30.10 in 10.0 mi South 12.7 mph 19.6 mph N/A   Mostly Cloudy
12:35 PM 90.7 °F 95.0 °F 68.5 °F 48% 30.08 in 10.0 mi SSE 11.5 mph 24.2 mph N/A   Scattered Clouds
12:55 PM 89.6 °F 93.4 °F 68.0 °F 49% 30.08 in 10.0 mi South 13.8 mph 21.9 mph N/A   Mostly Cloudy
1:15 PM 90.3 °F 94.7 °F 68.5 °F 49% 30.06 in 10.0 mi South 13.8 mph 20.7 mph N/A   Mostly Cloudy
1:35 PM 89.8 °F 94.2 °F 68.7 °F 50% 30.06 in 10.0 mi South 13.8 mph 19.6 mph N/A   Scattered Clouds
1:55 PM 89.6 °F 93.0 °F 67.6 °F 48% 30.04 in 10.0 mi South 9.2 mph 19.6 mph N/A   Mostly Cloudy
2:15 PM 89.1 °F 92.9 °F 68.2 °F 50% 30.04 in 10.0 mi SSE 13.8 mph 19.6 mph N/A   Mostly Cloudy
2:35 PM 87.6 °F 91.5 °F 68.4 °F 53% 30.02 in 10.0 mi SSE 16.1 mph 23.0 mph N/A   Mostly Cloudy
2:55 PM 86.7 °F 90.3 °F 68.2 °F 54% 30.02 in 10.0 mi South 11.5 mph 19.6 mph N/A   Mostly Cloudy
3:15 PM 87.8 °F 91.4 °F 68.2 °F 52% 30.01 in 10.0 mi South 18.4 mph 23.0 mph N/A   Mostly Cloudy
3:35 PM 86.7 °F 89.9 °F 67.5 °F 53% 30.00 in 10.0 mi South 13.8 mph 23.0 mph N/A   Scattered Clouds
3:55 PM 85.8 °F 88.8 °F 67.3 °F 54% 30.00 in 10.0 mi SSE 13.8 mph 21.9 mph N/A   Scattered Clouds
4:15 PM 87.1 °F 89.9 °F 66.7 °F 51% 29.99 in 10.0 mi South 11.5 mph 21.9 mph N/A   Scattered Clouds
4:35 PM 85.6 °F 88.5 °F 67.1 °F 54% 29.99 in 10.0 mi SSE 9.2 mph 18.4 mph N/A   Mostly Cloudy
4:55 PM 85.8 °F 89.1 °F 68.2 °F 55% 30.00 in 10.0 mi SSE 11.5 mph 20.7 mph N/A   Overcast
5:15 PM 82.4 °F 85.4 °F 68.0 °F 62% 29.99 in 10.0 mi SSE 12.7 mph 20.7 mph N/A   Scattered Clouds
5:35 PM 83.3 °F 86.6 °F 68.5 °F 61% 29.98 in 10.0 mi South 11.5 mph 19.6 mph N/A   Scattered Clouds
5:55 PM 84.4 °F 87.9 °F 68.5 °F 59% 29.97 in 10.0 mi South 18.4 mph 25.3 mph N/A   Mostly Cloudy
6:15 PM 83.3 °F 86.6 °F 68.4 °F 61% 29.98 in 10.0 mi South 11.5 mph 19.6 mph N/A   Mostly Cloudy
6:35 PM 81.5 °F 84.6 °F 68.9 °F 65% 29.98 in 10.0 mi South 10.4 mph 19.6 mph N/A   Scattered Clouds
7:35 PM 78.8 °F - 69.3 °F 72% 30.00 in 10.0 mi SSE 6.9 mph - N/A   Mostly Cloudy
7:55 PM 77.9 °F - 69.3 °F 75% 30.01 in 10.0 mi SSE 4.6 mph - N/A   Scattered Clouds
8:15 PM 77.2 °F - 69.3 °F 76% 30.02 in 10.0 mi South 3.5 mph - N/A   Mostly Cloudy
8:35 PM 76.5 °F - 68.9 °F 77% 30.02 in 10.0 mi SSE 4.6 mph - N/A   Scattered Clouds
9:15 PM 75.6 °F - 69.3 °F 81% 30.02 in 10.0 mi SSE 4.6 mph - N/A   Clear
9:35 PM 75.6 °F - 69.3 °F 81% 30.03 in 10.0 mi SSE 3.5 mph - N/A   Clear
9:55 PM 75.2 °F - 68.9 °F 81% 30.03 in 10.0 mi SE 3.5 mph - N/A   Clear
10:15 PM 74.3 °F - 68.2 °F 81% 30.02 in 10.0 mi SSE 3.5 mph - N/A   Clear
10:55 PM 72.7 °F - 67.1 °F 83% 30.03 in 10.0 mi Calm Calm - N/A   Scattered Clouds
11:15 PM 71.8 °F - 66.4 °F 83% 30.02 in 7.0 mi Calm Calm - N/A   Clear
11:35 PM 70.9 °F - 66.2 °F 85% 30.02 in 7.0 mi Calm Calm - N/A   Clear